N313TM KVLL-KUZA

Flight info

Callsign N313TM
Flight time 3h 59m
Altitude 9000
Route RPTER APE
Aircraft DA40/L-SG/L

Departure

Time 2026-05-03 20:52
Airport Oakland Troy Airport (KVLL)

Arrival

Time 2026-05-04 00:51
Airport Rock Hill - York County Airport (KUZA)
Time Latitude Longitude Altitude Speed Heading
2026-05-03 20:31 42.54230 -83.17895 717 ft 0 kts 114°
2026-05-03 20:45 42.54229 -83.17886 715 ft 3 kts 72°
2026-05-03 20:46 42.54234 -83.17882 717 ft 3 kts 351°
2026-05-03 20:46 42.54243 -83.17880 715 ft 2 kts 38°
2026-05-03 20:46 42.54255 -83.17835 714 ft 9 kts 89°
2026-05-03 20:46 42.54256 -83.17709 709 ft 15 kts 91°
2026-05-03 20:47 42.54256 -83.17545 707 ft 18 kts 89°
2026-05-03 20:47 42.54256 -83.17370 705 ft 17 kts 90°
2026-05-03 20:47 42.54248 -83.17223 700 ft 10 kts 112°
2026-05-03 20:47 42.54239 -83.17201 696 ft 0 kts 98°
2026-05-03 20:48 42.54239 -83.17200 696 ft 0 kts 98°
2026-05-03 20:49 42.54239 -83.17201 696 ft 0 kts 98°
2026-05-03 20:49 42.54239 -83.17200 696 ft 0 kts 98°
2026-05-03 20:50 42.54245 -83.17163 698 ft 6 kts 65°
2026-05-03 20:50 42.54274 -83.17137 698 ft 5 kts
2026-05-03 20:50 42.54297 -83.17144 698 ft 4 kts 303°
2026-05-03 20:50 42.54298 -83.17252 702 ft 30 kts 271°
2026-05-03 20:51 42.54300 -83.17724 737 ft 64 kts 262°
2026-05-03 20:51 42.54316 -83.18378 851 ft 78 kts 269°
2026-05-03 20:51 42.54355 -83.19178 968 ft 90 kts 270°
2026-05-03 20:51 42.54316 -83.19953 1306 ft 70 kts 236°
2026-05-03 20:52 42.53853 -83.20119 1509 ft 85 kts 175°
2026-05-03 20:52 42.53447 -83.19419 1630 ft 112 kts 110°
2026-05-03 20:52 42.53400 -83.18306 1743 ft 124 kts 98°
2026-05-03 20:52 42.53457 -83.17091 1813 ft 131 kts 89°
2026-05-03 20:53 42.53552 -83.15841 1891 ft 135 kts 90°
2026-05-03 20:53 42.53650 -83.14568 1958 ft 136 kts 89°
2026-05-03 20:53 42.53786 -83.13330 2071 ft 134 kts 83°
2026-05-03 20:53 42.53977 -83.12092 2147 ft 134 kts 81°
2026-05-03 20:54 42.54122 -83.10854 2223 ft 132 kts 91°
2026-05-03 20:54 42.54233 -83.08362 2379 ft 133 kts 92°
2026-05-03 20:54 42.54200 -83.07108 2457 ft 134 kts 102°
2026-05-03 20:55 42.54040 -83.05870 2500 ft 135 kts 112°
2026-05-03 20:55 42.53817 -83.04609 2500 ft 140 kts 113°
2026-05-03 20:55 42.53594 -83.03296 2501 ft 145 kts 112°
2026-05-03 20:55 42.53370 -83.01947 2507 ft 148 kts 112°
2026-05-03 20:56 42.53133 -83.00577 2521 ft 150 kts 112°
2026-05-03 20:56 42.52834 -82.99230 2521 ft 149 kts 117°
2026-05-03 20:56 42.52511 -82.97892 2520 ft 149 kts 117°
2026-05-03 20:56 42.52179 -82.96562 2517 ft 148 kts 121°
2026-05-03 20:57 42.51796 -82.95275 2520 ft 147 kts 122°
2026-05-03 20:57 42.51408 -82.93995 2520 ft 147 kts 122°
2026-05-03 20:57 42.51006 -82.92732 2516 ft 143 kts 131°
2026-05-03 20:57 42.50421 -82.91687 2519 ft 138 kts 142°
2026-05-03 20:58 42.49816 -82.90674 2515 ft 141 kts 135°
2026-05-03 20:58 42.49248 -82.89625 2513 ft 132 kts 153°
2026-05-03 20:58 42.48535 -82.88872 2515 ft 129 kts 157°
2026-05-03 20:58 42.47817 -82.88135 2492 ft 130 kts 158°
2026-05-03 20:59 42.47072 -82.87425 2402 ft 130 kts 163°
2026-05-03 20:59 42.46270 -82.86943 2365 ft 123 kts 174°
2026-05-03 20:59 42.45464 -82.86749 2329 ft 116 kts 188°
2026-05-03 20:59 42.44671 -82.86734 2275 ft 114 kts 191°
2026-05-03 21:00 42.43870 -82.86765 2186 ft 115 kts 194°
2026-05-03 21:00 42.43341 -82.86833 2165 ft 110 kts 200°
2026-05-03 21:00 42.42416 -82.87197 2150 ft 103 kts 210°
2026-05-03 21:00 42.41757 -82.87547 2145 ft 101 kts 210°
2026-05-03 21:01 42.41094 -82.87874 2088 ft 102 kts 210°
2026-05-03 21:01 42.40426 -82.88233 2016 ft 104 kts 211°
2026-05-03 21:01 42.39752 -82.88590 2006 ft 103 kts 211°
2026-05-03 21:01 42.39092 -82.88939 1990 ft 102 kts 212°
2026-05-03 21:02 42.38461 -82.89322 2021 ft 96 kts 214°
2026-05-03 21:02 42.37878 -82.89733 1985 ft 95 kts 216°
2026-05-03 21:02 42.37323 -82.90217 1942 ft 93 kts 223°
2026-05-03 21:02 42.36846 -82.90784 1953 ft 91 kts 229°
2026-05-03 21:03 42.36447 -82.91445 1971 ft 91 kts 238°
2026-05-03 21:03 42.36114 -82.92169 1983 ft 90 kts 240°
2026-05-03 21:03 42.35838 -82.92922 2025 ft 89 kts 246°
2026-05-03 21:03 42.35602 -82.93678 2043 ft 87 kts 245°
2026-05-03 21:04 42.35387 -82.94460 1987 ft 90 kts 247°
2026-05-03 21:04 42.35168 -82.95245 1984 ft 89 kts 245°
2026-05-03 21:04 42.34907 -82.96003 2000 ft 89 kts 244°
2026-05-03 21:04 42.34644 -82.96791 1984 ft 94 kts 246°
2026-05-03 21:05 42.34374 -82.97573 2032 ft 90 kts 246°
2026-05-03 21:05 42.34105 -82.98340 2049 ft 92 kts 243°
2026-05-03 21:05 42.33825 -82.99096 2129 ft 89 kts 244°
2026-05-03 21:05 42.33547 -82.99860 2125 ft 92 kts 245°
2026-05-03 21:06 42.33279 -83.00623 2170 ft 88 kts 245°
2026-05-03 21:06 42.33040 -83.01381 2184 ft 89 kts 248°
2026-05-03 21:06 42.32822 -83.02181 2133 ft 93 kts 248°
2026-05-03 21:06 42.32625 -83.03018 2092 ft 93 kts 250°
2026-05-03 21:07 42.32412 -83.03830 2082 ft 92 kts 246°
2026-05-03 21:07 42.32211 -83.04658 2025 ft 93 kts 251°
2026-05-03 21:07 42.32010 -83.05485 1980 ft 91 kts 246°
2026-05-03 21:07 42.31744 -83.06235 1970 ft 87 kts 239°
2026-05-03 21:08 42.31413 -83.06908 1987 ft 86 kts 234°
2026-05-03 21:08 42.31022 -83.07532 1971 ft 89 kts 226°
2026-05-03 21:08 42.30551 -83.08089 1962 ft 90 kts 226°
2026-05-03 21:08 42.30050 -83.08602 1972 ft 93 kts 217°
2026-05-03 21:09 42.29478 -83.09049 1916 ft 95 kts 216°
2026-05-03 21:09 42.28884 -83.09438 1886 ft 95 kts 213°
2026-05-03 21:09 42.28293 -83.09782 1917 ft 92 kts 213°
2026-05-03 21:09 42.27713 -83.10111 1912 ft 90 kts 213°
2026-05-03 21:10 42.27141 -83.10465 1888 ft 92 kts 213°
2026-05-03 21:10 42.26558 -83.10814 1904 ft 92 kts 213°
2026-05-03 21:10 42.25958 -83.11195 1807 ft 98 kts 212°
2026-05-03 21:10 42.25354 -83.11566 1813 ft 94 kts 214°
2026-05-03 21:11 42.24757 -83.11971 1777 ft 96 kts 214°
2026-05-03 21:11 42.24159 -83.12305 1854 ft 92 kts 206°
2026-05-03 21:11 42.23533 -83.12535 1901 ft 93 kts 204°
2026-05-03 21:11 42.22901 -83.12769 1880 ft 96 kts 207°
2026-05-03 21:12 42.22233 -83.12918 1925 ft 99 kts 195°
2026-05-03 21:12 42.21546 -83.13017 1929 ft 100 kts 200°
2026-05-03 21:12 42.20858 -83.13137 1998 ft 100 kts 199°
2026-05-03 21:12 42.20166 -83.13228 2035 ft 100 kts 198°
2026-05-03 21:13 42.19503 -83.13402 2100 ft 94 kts 205°
2026-05-03 21:13 42.18865 -83.13601 2137 ft 95 kts 203°
2026-05-03 21:13 42.18218 -83.13802 2181 ft 94 kts 205°
2026-05-03 21:13 42.17581 -83.14004 2218 ft 96 kts 204°
2026-05-03 21:14 42.16931 -83.14221 2205 ft 97 kts 205°
2026-05-03 21:14 42.16264 -83.14428 2226 ft 98 kts 202°
2026-05-03 21:14 42.15604 -83.14630 2238 ft 97 kts 204°
2026-05-03 21:14 42.14966 -83.14850 2281 ft 94 kts 206°
2026-05-03 21:15 42.14320 -83.15015 2309 ft 98 kts 197°
2026-05-03 21:15 42.13638 -83.15001 2342 ft 97 kts 192°
2026-05-03 21:15 42.12976 -83.14961 2397 ft 95 kts 193°
2026-05-03 21:15 42.12318 -83.14917 2477 ft 94 kts 192°
2026-05-03 21:16 42.11671 -83.14889 2551 ft 93 kts 193°
2026-05-03 21:16 42.11020 -83.14856 2624 ft 94 kts 192°
2026-05-03 21:16 42.10369 -83.14821 2700 ft 94 kts 192°
2026-05-03 21:16 42.09714 -83.14803 2759 ft 95 kts 192°
2026-05-03 21:17 42.09053 -83.14795 2809 ft 95 kts 192°
2026-05-03 21:17 42.08629 -83.14853 2842 ft 91 kts 201°
2026-05-03 21:17 42.07847 -83.15176 2911 ft 86 kts 212°
2026-05-03 21:17 42.07296 -83.15505 2964 ft 87 kts 213°
2026-05-03 21:18 42.06739 -83.15826 3025 ft 87 kts 212°
2026-05-03 21:18 42.06173 -83.16154 3027 ft 92 kts 212°
2026-05-03 21:18 42.05494 -83.16302 3023 ft 103 kts 193°
2026-05-03 21:18 42.04783 -83.16343 3018 ft 100 kts 200°
2026-05-03 21:19 42.04112 -83.16514 3022 ft 99 kts 202°
2026-05-03 21:19 42.03431 -83.16702 3022 ft 101 kts 202°
2026-05-03 21:19 42.02743 -83.16893 3022 ft 101 kts 202°
2026-05-03 21:19 42.02056 -83.17088 3022 ft 101 kts 202°
2026-05-03 21:20 42.01368 -83.17279 3020 ft 101 kts 202°
2026-05-03 21:20 42.00685 -83.17473 3021 ft 100 kts 202°
2026-05-03 21:20 42.00005 -83.17657 3021 ft 100 kts 202°
2026-05-03 21:20 41.99324 -83.17836 3017 ft 99 kts 202°
2026-05-03 21:21 41.98635 -83.17956 3020 ft 106 kts 188°
2026-05-03 21:21 41.97904 -83.17821 3025 ft 104 kts 189°
2026-05-03 21:21 41.97189 -83.17808 3026 ft 102 kts 192°
2026-05-03 21:21 41.96479 -83.17822 3026 ft 102 kts 193°
2026-05-03 21:22 41.95773 -83.17837 3028 ft 101 kts 192°
2026-05-03 21:22 41.95068 -83.17856 3030 ft 102 kts 193°
2026-05-03 21:22 41.94358 -83.17873 3031 ft 103 kts 193°
2026-05-03 21:22 41.93642 -83.17875 3032 ft 103 kts 193°
2026-05-03 21:23 41.92924 -83.17875 3032 ft 103 kts 193°
2026-05-03 21:23 41.92447 -83.17875 3030 ft 104 kts 193°
2026-05-03 21:23 41.91733 -83.17869 3029 ft 102 kts 192°
2026-05-03 21:23 41.91027 -83.17868 3031 ft 101 kts 192°
2026-05-03 21:24 41.90326 -83.17876 3041 ft 101 kts 193°
2026-05-03 21:24 41.89624 -83.17880 3045 ft 101 kts 192°
2026-05-03 21:24 41.88687 -83.17890 3044 ft 102 kts 192°
2026-05-03 21:24 41.88210 -83.17898 3052 ft 100 kts 192°
2026-05-03 21:25 41.87584 -83.17889 3313 ft 80 kts 192°
2026-05-03 21:25 41.87052 -83.17847 3543 ft 76 kts 192°
2026-05-03 21:25 41.86523 -83.17803 3733 ft 76 kts 192°
2026-05-03 21:25 41.85997 -83.17759 3950 ft 76 kts 192°
2026-05-03 21:26 41.85468 -83.17715 4165 ft 76 kts 192°
2026-05-03 21:26 41.84942 -83.17674 4362 ft 78 kts 192°
2026-05-03 21:26 41.84355 -83.17652 4440 ft 89 kts 192°
2026-05-03 21:26 41.83740 -83.17636 4600 ft 88 kts 192°
2026-05-03 21:27 41.83131 -83.17618 4747 ft 88 kts 192°
2026-05-03 21:27 41.82519 -83.17598 4888 ft 88 kts 192°
2026-05-03 21:27 41.81902 -83.17575 5035 ft 89 kts 192°
2026-05-03 21:27 41.81330 -83.17566 5304 ft 76 kts 200°
2026-05-03 21:28 41.80808 -83.17659 5499 ft 76 kts 202°
2026-05-03 21:28 41.80280 -83.17764 5700 ft 76 kts 207°
2026-05-03 21:28 41.79793 -83.17990 5908 ft 74 kts 212°
2026-05-03 21:28 41.79308 -83.18227 6117 ft 74 kts 212°
2026-05-03 21:29 41.78819 -83.18458 6328 ft 75 kts 212°
2026-05-03 21:29 41.78329 -83.18691 6508 ft 75 kts 212°
2026-05-03 21:29 41.77842 -83.18955 6702 ft 76 kts 212°
2026-05-03 21:29 41.77354 -83.19220 6911 ft 76 kts 212°
2026-05-03 21:30 41.76862 -83.19480 7120 ft 76 kts 212°
2026-05-03 21:30 41.76368 -83.19738 7310 ft 77 kts 212°
2026-05-03 21:30 41.75906 -83.20079 7501 ft 75 kts 222°
2026-05-03 21:30 41.75521 -83.20527 7696 ft 74 kts 229°
2026-05-03 21:31 41.75142 -83.21006 7882 ft 76 kts 229°
2026-05-03 21:31 41.74762 -83.21497 8088 ft 76 kts 229°
2026-05-03 21:31 41.74381 -83.21984 8294 ft 77 kts 229°
2026-05-03 21:31 41.73995 -83.22476 8506 ft 76 kts 229°
2026-05-03 21:32 41.73606 -83.22953 8701 ft 77 kts 229°
2026-05-03 21:32 41.73212 -83.23433 8902 ft 76 kts 229°
2026-05-03 21:32 41.72829 -83.23932 9064 ft 81 kts 233°
2026-05-03 21:32 41.72385 -83.24521 9066 ft 99 kts 223°
2026-05-03 21:33 41.71726 -83.24940 9060 ft 114 kts 202°
2026-05-03 21:33 41.70894 -83.24926 9060 ft 128 kts 176°
2026-05-03 21:33 41.70023 -83.24593 9063 ft 132 kts 174°
2026-05-03 21:33 41.69144 -83.24227 9065 ft 133 kts 174°
2026-05-03 21:34 41.68256 -83.23846 9067 ft 135 kts 173°
2026-05-03 21:34 41.67361 -83.23457 9068 ft 136 kts 173°
2026-05-03 21:34 41.66463 -83.23065 9073 ft 136 kts 173°
2026-05-03 21:34 41.65565 -83.22675 9080 ft 135 kts 174°
2026-05-03 21:35 41.64670 -83.22286 9081 ft 135 kts 174°
2026-05-03 21:35 41.63773 -83.21896 9080 ft 136 kts 174°
2026-05-03 21:35 41.62887 -83.21512 9079 ft 136 kts 173°
2026-05-03 21:35 41.61977 -83.21117 9079 ft 136 kts 173°
2026-05-03 21:36 41.61091 -83.20731 9081 ft 136 kts 174°
2026-05-03 21:36 41.60195 -83.20342 9080 ft 135 kts 173°
2026-05-03 21:36 41.59288 -83.19911 9070 ft 138 kts 163°
2026-05-03 21:36 41.58393 -83.19510 9071 ft 134 kts 174°
2026-05-03 21:37 41.57510 -83.19161 9070 ft 134 kts 174°
2026-05-03 21:37 41.56623 -83.18791 9072 ft 133 kts 173°
2026-05-03 21:37 41.55739 -83.18411 9069 ft 133 kts 174°
2026-05-03 21:37 41.54861 -83.18032 9070 ft 132 kts 174°
2026-05-03 21:38 41.53987 -83.17653 9073 ft 132 kts 173°
2026-05-03 21:38 41.53110 -83.17273 9070 ft 132 kts 174°
2026-05-03 21:38 41.52236 -83.16895 9073 ft 132 kts 173°
2026-05-03 21:38 41.51361 -83.16516 9073 ft 132 kts 174°
2026-05-03 21:39 41.50488 -83.16139 9069 ft 132 kts 174°
2026-05-03 21:39 41.49619 -83.15763 9070 ft 131 kts 174°
2026-05-03 21:39 41.48751 -83.15388 9066 ft 132 kts 173°
2026-05-03 21:39 41.47879 -83.15011 9088 ft 131 kts 172°
2026-05-03 21:40 41.47008 -83.14634 9091 ft 132 kts 174°
2026-05-03 21:40 41.46138 -83.14259 9090 ft 132 kts 173°
2026-05-03 21:40 41.45268 -83.13882 9088 ft 132 kts 173°
2026-05-03 21:40 41.44393 -83.13505 9090 ft 132 kts 172°
2026-05-03 21:41 41.43514 -83.13127 9093 ft 133 kts 172°
2026-05-03 21:41 41.42636 -83.12748 9093 ft 132 kts 172°
2026-05-03 21:41 41.41764 -83.12370 9092 ft 131 kts 172°
2026-05-03 21:41 41.40896 -83.11996 9093 ft 131 kts 173°
2026-05-03 21:42 41.40025 -83.11621 9087 ft 132 kts 172°
2026-05-03 21:42 41.39148 -83.11243 9096 ft 133 kts 172°
2026-05-03 21:42 41.38268 -83.10863 9097 ft 133 kts 174°
2026-05-03 21:42 41.37391 -83.10486 9096 ft 132 kts 174°
2026-05-03 21:43 41.36515 -83.10109 9098 ft 133 kts 173°
2026-05-03 21:43 41.35647 -83.09735 9098 ft 133 kts 173°
2026-05-03 21:43 41.34773 -83.09358 9099 ft 132 kts 173°
2026-05-03 21:43 41.33898 -83.08982 9103 ft 132 kts 173°
2026-05-03 21:44 41.33018 -83.08603 9099 ft 134 kts 174°
2026-05-03 21:44 41.32133 -83.08223 9102 ft 133 kts 173°
2026-05-03 21:44 41.31250 -83.07843 9102 ft 133 kts 173°
2026-05-03 21:44 41.30370 -83.07465 9111 ft 133 kts 173°
2026-05-03 21:45 41.29490 -83.07087 9118 ft 133 kts 172°
2026-05-03 21:45 41.28604 -83.06707 9118 ft 134 kts 172°
2026-05-03 21:45 41.27716 -83.06325 9117 ft 134 kts 173°
2026-05-03 21:45 41.26830 -83.05944 9117 ft 134 kts 174°
2026-05-03 21:46 41.25945 -83.05565 9114 ft 134 kts 173°
2026-05-03 21:46 41.25059 -83.05184 9114 ft 134 kts 173°
2026-05-03 21:46 41.24174 -83.04804 9114 ft 134 kts 173°
2026-05-03 21:46 41.23289 -83.04425 9115 ft 134 kts 174°
2026-05-03 21:47 41.22404 -83.04046 9111 ft 133 kts 174°
2026-05-03 21:47 41.21521 -83.03668 9118 ft 133 kts 173°
2026-05-03 21:47 41.20636 -83.03289 9118 ft 134 kts 173°
2026-05-03 21:47 41.19749 -83.02910 9118 ft 134 kts 172°
2026-05-03 21:48 41.18862 -83.02529 9116 ft 134 kts 174°
2026-05-03 21:48 41.17980 -83.02151 9113 ft 133 kts 173°
2026-05-03 21:48 41.17098 -83.01774 9119 ft 134 kts 172°
2026-05-03 21:48 41.16210 -83.01394 9117 ft 134 kts 172°
2026-05-03 21:49 41.15320 -83.01014 9116 ft 134 kts 172°
2026-05-03 21:49 41.14431 -83.00633 9115 ft 134 kts 172°
2026-05-03 21:49 41.13542 -83.00253 9115 ft 134 kts 173°
2026-05-03 21:49 41.12656 -82.99874 9119 ft 134 kts 173°
2026-05-03 21:50 41.11770 -82.99496 9120 ft 134 kts 172°
2026-05-03 21:50 41.10882 -82.99116 9121 ft 134 kts 173°
2026-05-03 21:50 41.09993 -82.98737 9120 ft 134 kts 172°
2026-05-03 21:50 41.09081 -82.98350 9006 ft 141 kts 173°
2026-05-03 21:51 41.08155 -82.97954 8999 ft 138 kts 173°
2026-05-03 21:51 41.07250 -82.97565 8999 ft 136 kts 173°
2026-05-03 21:51 41.06358 -82.97185 8999 ft 134 kts 173°
2026-05-03 21:51 41.05472 -82.96807 9001 ft 134 kts 173°
2026-05-03 21:52 41.04584 -82.96429 9006 ft 134 kts 173°
2026-05-03 21:52 41.03699 -82.96053 9003 ft 133 kts 173°
2026-05-03 21:52 41.02830 -82.95683 9004 ft 133 kts 171°
2026-05-03 21:52 41.01951 -82.95308 9004 ft 133 kts 172°
2026-05-03 21:53 41.01071 -82.94933 9002 ft 133 kts 172°
2026-05-03 21:53 41.00189 -82.94558 9003 ft 133 kts 173°
2026-05-03 21:53 40.99307 -82.94183 9003 ft 133 kts 173°
2026-05-03 21:53 40.98428 -82.93809 9003 ft 132 kts 173°
2026-05-03 21:54 40.97550 -82.93436 9000 ft 133 kts 172°
2026-05-03 21:54 40.96671 -82.93063 9000 ft 133 kts 172°
2026-05-03 21:54 40.95792 -82.92688 9004 ft 132 kts 173°
2026-05-03 21:54 40.94918 -82.92317 9003 ft 132 kts 173°
2026-05-03 21:55 40.94047 -82.91947 9002 ft 131 kts 172°
2026-05-03 21:55 40.93175 -82.91577 9002 ft 132 kts 173°
2026-05-03 21:55 40.92304 -82.91207 9003 ft 132 kts 172°
2026-05-03 21:55 40.91432 -82.90838 9002 ft 132 kts 172°
2026-05-03 21:56 40.90563 -82.90468 8996 ft 131 kts 173°
2026-05-03 21:56 40.89695 -82.90100 8995 ft 131 kts 173°
2026-05-03 21:56 40.88826 -82.89732 8990 ft 131 kts 173°
2026-05-03 21:56 40.87961 -82.89365 8990 ft 131 kts 172°
2026-05-03 21:57 40.87096 -82.88998 8989 ft 130 kts 172°
2026-05-03 21:57 40.86232 -82.88632 8996 ft 130 kts 172°
2026-05-03 21:57 40.85366 -82.88265 8994 ft 131 kts 172°
2026-05-03 21:57 40.84501 -82.87899 8994 ft 131 kts 173°
2026-05-03 21:58 40.83636 -82.87533 8993 ft 131 kts 172°
2026-05-03 21:58 40.82769 -82.87166 8997 ft 132 kts 172°
2026-05-03 21:58 40.81893 -82.86796 8995 ft 132 kts 172°
2026-05-03 21:58 40.81017 -82.86425 8995 ft 132 kts 172°
2026-05-03 21:59 40.80141 -82.86054 8993 ft 132 kts 173°
2026-05-03 21:59 40.79267 -82.85684 8993 ft 132 kts 172°
2026-05-03 21:59 40.78394 -82.85315 8993 ft 131 kts 172°
2026-05-03 21:59 40.77523 -82.84947 8999 ft 132 kts 172°
2026-05-03 22:00 40.76652 -82.84579 9003 ft 131 kts 172°
2026-05-03 22:00 40.75783 -82.84212 9001 ft 131 kts 173°
2026-05-03 22:00 40.74916 -82.83846 9001 ft 131 kts 173°
2026-05-03 22:00 40.74052 -82.83481 8995 ft 130 kts 172°
2026-05-03 22:01 40.73200 -82.83121 8994 ft 130 kts 172°
2026-05-03 22:01 40.72341 -82.82757 8993 ft 130 kts 173°
2026-05-03 22:01 40.71484 -82.82396 8992 ft 129 kts 172°
2026-05-03 22:01 40.70629 -82.82036 8990 ft 129 kts 172°
2026-05-03 22:02 40.69775 -82.81675 8991 ft 129 kts 172°
2026-05-03 22:02 40.68922 -82.81316 8994 ft 129 kts 172°
2026-05-03 22:02 40.68064 -82.80955 8990 ft 130 kts 172°
2026-05-03 22:02 40.67203 -82.80593 8994 ft 130 kts 172°
2026-05-03 22:03 40.66340 -82.80230 8995 ft 130 kts 172°
2026-05-03 22:03 40.65475 -82.79866 8994 ft 131 kts 172°
2026-05-03 22:03 40.64608 -82.79501 8993 ft 131 kts 172°
2026-05-03 22:03 40.63738 -82.79135 8995 ft 131 kts 172°
2026-05-03 22:04 40.62867 -82.78769 8995 ft 131 kts 172°
2026-05-03 22:04 40.61994 -82.78402 8996 ft 132 kts 172°
2026-05-03 22:04 40.61119 -82.78034 8988 ft 132 kts 172°
2026-05-03 22:04 40.60245 -82.77666 8998 ft 132 kts 172°
2026-05-03 22:05 40.59365 -82.77296 9001 ft 133 kts 172°
2026-05-03 22:05 40.58478 -82.76924 9001 ft 134 kts 172°
2026-05-03 22:05 40.57586 -82.76550 8999 ft 135 kts 172°
2026-05-03 22:05 40.56694 -82.76175 9000 ft 135 kts 172°
2026-05-03 22:06 40.55801 -82.75800 9001 ft 135 kts 172°
2026-05-03 22:06 40.54901 -82.75423 9004 ft 136 kts 172°
2026-05-03 22:06 40.54005 -82.75049 9005 ft 137 kts 172°
2026-05-03 22:06 40.53096 -82.74667 9000 ft 137 kts 172°
2026-05-03 22:07 40.52194 -82.74288 9000 ft 136 kts 172°
2026-05-03 22:07 40.51298 -82.73912 9000 ft 135 kts 172°
2026-05-03 22:07 40.50403 -82.73537 9000 ft 135 kts 172°
2026-05-03 22:07 40.49513 -82.73164 9000 ft 134 kts 172°
2026-05-03 22:08 40.48630 -82.72794 9002 ft 132 kts 172°
2026-05-03 22:08 40.47753 -82.72426 9003 ft 132 kts 172°
2026-05-03 22:08 40.46877 -82.72060 9004 ft 132 kts 172°
2026-05-03 22:08 40.46004 -82.71695 9004 ft 132 kts 172°
2026-05-03 22:09 40.45131 -82.71330 9003 ft 131 kts 172°
2026-05-03 22:09 40.44265 -82.70967 9005 ft 130 kts 172°
2026-05-03 22:09 40.43400 -82.70605 9008 ft 131 kts 172°
2026-05-03 22:10 40.41669 -82.69882 9017 ft 130 kts 172°
2026-05-03 22:10 40.40803 -82.69521 9018 ft 131 kts 172°
2026-05-03 22:10 40.39936 -82.69159 9018 ft 131 kts 172°
2026-05-03 22:10 40.39065 -82.68795 9018 ft 132 kts 172°
2026-05-03 22:11 40.38190 -82.68430 9016 ft 132 kts 172°
2026-05-03 22:11 40.37314 -82.68064 9017 ft 132 kts 172°
2026-05-03 22:11 40.36451 -82.67705 9016 ft 132 kts 172°
2026-05-03 22:11 40.35573 -82.67340 9015 ft 132 kts 172°
2026-05-03 22:12 40.34695 -82.66974 9014 ft 132 kts 172°
2026-05-03 22:12 40.33818 -82.66608 9014 ft 133 kts 172°
2026-05-03 22:12 40.32938 -82.66241 9017 ft 133 kts 171°
2026-05-03 22:12 40.32056 -82.65874 9019 ft 134 kts 172°
2026-05-03 22:13 40.31166 -82.65504 9016 ft 134 kts 171°
2026-05-03 22:13 40.30274 -82.65132 9016 ft 135 kts 172°
2026-05-03 22:13 40.29387 -82.64761 9016 ft 133 kts 172°
2026-05-03 22:13 40.28513 -82.64397 9016 ft 131 kts 172°
2026-05-03 22:14 40.27649 -82.64037 9016 ft 130 kts 172°
2026-05-03 22:14 40.26792 -82.63680 9016 ft 128 kts 172°
2026-05-03 22:14 40.26220 -82.63442 9015 ft 127 kts 172°
2026-05-03 22:14 40.25383 -82.63094 9017 ft 126 kts 172°
2026-05-03 22:15 40.24567 -82.62754 9019 ft 124 kts 172°
2026-05-03 22:15 40.23745 -82.62412 9015 ft 123 kts 173°
2026-05-03 22:15 40.22928 -82.62072 9019 ft 123 kts 173°
2026-05-03 22:15 40.22111 -82.61733 9019 ft 123 kts 174°
2026-05-03 22:16 40.21296 -82.61394 9016 ft 122 kts 173°
2026-05-03 22:16 40.20491 -82.61059 9017 ft 121 kts 173°
2026-05-03 22:16 40.19695 -82.60727 9017 ft 119 kts 173°
2026-05-03 22:16 40.18913 -82.60402 9019 ft 117 kts 174°
2026-05-03 22:17 40.18139 -82.60081 9018 ft 116 kts 174°
2026-05-03 22:17 40.17369 -82.59762 9016 ft 116 kts 174°
2026-05-03 22:17 40.16607 -82.59445 9017 ft 114 kts 174°
2026-05-03 22:17 40.15856 -82.59134 9017 ft 113 kts 174°
2026-05-03 22:18 40.15106 -82.58826 9014 ft 112 kts 177°
2026-05-03 22:18 40.14355 -82.58589 9021 ft 111 kts 178°
2026-05-03 22:18 40.13600 -82.58346 9024 ft 112 kts 178°
2026-05-03 22:18 40.12838 -82.58102 9028 ft 113 kts 178°
2026-05-03 22:19 40.12065 -82.57855 9034 ft 115 kts 178°
2026-05-03 22:19 40.11278 -82.57605 9037 ft 117 kts 177°
2026-05-03 22:19 40.10479 -82.57351 9027 ft 119 kts 177°
2026-05-03 22:19 40.09677 -82.57095 9036 ft 118 kts 178°
2026-05-03 22:20 40.08880 -82.56842 9032 ft 118 kts 178°
2026-05-03 22:20 40.08080 -82.56587 9039 ft 119 kts 177°
2026-05-03 22:20 40.07276 -82.56331 9035 ft 119 kts 177°
2026-05-03 22:20 40.06466 -82.56074 9033 ft 120 kts 177°
2026-05-03 22:21 40.05651 -82.55815 9031 ft 121 kts 178°
2026-05-03 22:21 40.04835 -82.55555 9031 ft 121 kts 177°
2026-05-03 22:21 40.04018 -82.55295 9031 ft 121 kts 177°
2026-05-03 22:21 40.03205 -82.55035 9027 ft 120 kts 177°
2026-05-03 22:22 40.02394 -82.54777 9023 ft 120 kts 177°
2026-05-03 22:22 40.01588 -82.54521 9021 ft 119 kts 177°
2026-05-03 22:22 40.00791 -82.54268 9027 ft 117 kts 178°
2026-05-03 22:22 39.99995 -82.54016 9032 ft 118 kts 178°
2026-05-03 22:23 39.99193 -82.53762 9027 ft 119 kts 177°
2026-05-03 22:23 39.98402 -82.53511 9030 ft 118 kts 177°
2026-05-03 22:23 39.97606 -82.53258 9022 ft 118 kts 178°
2026-05-03 22:23 39.96800 -82.53002 9028 ft 117 kts 178°
2026-05-03 22:24 39.96006 -82.52751 9027 ft 117 kts 177°
2026-05-03 22:24 39.95227 -82.52504 9031 ft 117 kts 178°
2026-05-03 22:24 39.94438 -82.52254 9028 ft 116 kts 178°
2026-05-03 22:24 39.93656 -82.52005 9031 ft 115 kts 180°
2026-05-03 22:25 39.92884 -82.51762 9023 ft 114 kts 178°
2026-05-03 22:25 39.92115 -82.51517 9027 ft 113 kts 178°
2026-05-03 22:25 39.91354 -82.51275 9029 ft 112 kts 178°
2026-05-03 22:25 39.90598 -82.51036 9028 ft 111 kts 178°
2026-05-03 22:26 39.89838 -82.50796 9036 ft 114 kts 178°
2026-05-03 22:26 39.89057 -82.50550 9039 ft 117 kts 178°
2026-05-03 22:26 39.88259 -82.50298 9042 ft 119 kts 178°
2026-05-03 22:26 39.87432 -82.50040 8966 ft 126 kts 177°
2026-05-03 22:27 39.86562 -82.49768 8844 ft 130 kts 177°
2026-05-03 22:27 39.85675 -82.49489 8741 ft 132 kts 176°
2026-05-03 22:27 39.84776 -82.49204 8639 ft 134 kts 176°
2026-05-03 22:27 39.83877 -82.48919 8562 ft 133 kts 176°
2026-05-03 22:28 39.82980 -82.48635 8487 ft 133 kts 176°
2026-05-03 22:28 39.82081 -82.48351 8409 ft 133 kts 176°
2026-05-03 22:28 39.81182 -82.48067 8332 ft 133 kts 176°
2026-05-03 22:28 39.80284 -82.47784 8254 ft 133 kts 176°
2026-05-03 22:29 39.79388 -82.47501 8178 ft 133 kts 176°
2026-05-03 22:29 39.78490 -82.47218 8095 ft 133 kts 175°
2026-05-03 22:29 39.77591 -82.46934 8020 ft 133 kts 175°
2026-05-03 22:29 39.76692 -82.46651 7944 ft 133 kts 175°
2026-05-03 22:30 39.75790 -82.46366 7867 ft 133 kts 176°
2026-05-03 22:30 39.74891 -82.46084 7792 ft 132 kts 175°
2026-05-03 22:30 39.73995 -82.45801 7716 ft 133 kts 176°
2026-05-03 22:30 39.73097 -82.45518 7646 ft 134 kts 176°
2026-05-03 22:31 39.72202 -82.45237 7568 ft 134 kts 175°
2026-05-03 22:31 39.71297 -82.44952 7497 ft 134 kts 175°
2026-05-03 22:31 39.70388 -82.44667 7423 ft 135 kts 175°
2026-05-03 22:31 39.69480 -82.44381 7346 ft 134 kts 175°
2026-05-03 22:32 39.68575 -82.44096 7273 ft 133 kts 175°
2026-05-03 22:32 39.67681 -82.43812 7201 ft 132 kts 175°
2026-05-03 22:32 39.66789 -82.43534 7131 ft 132 kts 175°
2026-05-03 22:32 39.65889 -82.43252 7051 ft 134 kts 175°
2026-05-03 22:33 39.65004 -82.42972 7047 ft 128 kts 175°
2026-05-03 22:33 39.64151 -82.42701 7049 ft 125 kts 175°
2026-05-03 22:33 39.63309 -82.42437 7048 ft 124 kts 175°
2026-05-03 22:33 39.62479 -82.42175 7042 ft 121 kts 175°
2026-05-03 22:34 39.61665 -82.41918 7036 ft 120 kts 176°
2026-05-03 22:34 39.60858 -82.41665 7049 ft 119 kts 176°
2026-05-03 22:34 39.60050 -82.41415 7053 ft 120 kts 176°
2026-05-03 22:34 39.59241 -82.41162 7054 ft 120 kts 176°
2026-05-03 22:35 39.58428 -82.40908 7053 ft 120 kts 176°
2026-05-03 22:35 39.57620 -82.40654 7054 ft 119 kts 176°
2026-05-03 22:35 39.56812 -82.40401 7059 ft 120 kts 176°
2026-05-03 22:35 39.56001 -82.40148 7059 ft 120 kts 175°
2026-05-03 22:36 39.55188 -82.39893 7051 ft 121 kts 174°
2026-05-03 22:36 39.54368 -82.39636 7049 ft 121 kts 174°
2026-05-03 22:36 39.53544 -82.39378 7053 ft 123 kts 174°
2026-05-03 22:36 39.52707 -82.39116 7051 ft 124 kts 174°
2026-05-03 22:37 39.51865 -82.38852 7048 ft 124 kts 174°
2026-05-03 22:37 39.51030 -82.38590 7058 ft 123 kts 174°
2026-05-03 22:37 39.50192 -82.38329 7056 ft 124 kts 174°
2026-05-03 22:37 39.49357 -82.38067 7056 ft 124 kts 174°
2026-05-03 22:38 39.48519 -82.37806 7058 ft 124 kts 175°
2026-05-03 22:38 39.47686 -82.37546 7057 ft 125 kts 174°
2026-05-03 22:38 39.46826 -82.37277 7060 ft 126 kts 174°
2026-05-03 22:38 39.45973 -82.37010 7059 ft 127 kts 174°
2026-05-03 22:39 39.45118 -82.36743 7055 ft 126 kts 174°
2026-05-03 22:39 39.44269 -82.36477 7063 ft 125 kts 174°
2026-05-03 22:39 39.43417 -82.36213 7060 ft 126 kts 174°
2026-05-03 22:39 39.42561 -82.35946 7057 ft 127 kts 173°
2026-05-03 22:40 39.41706 -82.35678 7058 ft 127 kts 173°
2026-05-03 22:40 39.40852 -82.35411 7059 ft 126 kts 174°
2026-05-03 22:40 39.39997 -82.35145 7065 ft 127 kts 174°
2026-05-03 22:40 39.39141 -82.34878 7056 ft 126 kts 173°
2026-05-03 22:41 39.38297 -82.34615 7057 ft 127 kts 174°
2026-05-03 22:41 39.37442 -82.34348 7049 ft 127 kts 174°
2026-05-03 22:41 39.36586 -82.34082 7047 ft 126 kts 174°
2026-05-03 22:41 39.35730 -82.33815 7048 ft 127 kts 173°
2026-05-03 22:42 39.34869 -82.33547 7047 ft 128 kts 174°
2026-05-03 22:42 39.34004 -82.33278 7040 ft 128 kts 174°
2026-05-03 22:42 39.33139 -82.33010 7038 ft 127 kts 173°
2026-05-03 22:42 39.32276 -82.32741 7029 ft 128 kts 173°
2026-05-03 22:43 39.31408 -82.32471 7035 ft 129 kts 174°
2026-05-03 22:43 39.30538 -82.32201 7030 ft 129 kts 174°
2026-05-03 22:43 39.29669 -82.31931 7026 ft 128 kts 173°
2026-05-03 22:43 39.28803 -82.31662 7027 ft 128 kts 174°
2026-05-03 22:44 39.27944 -82.31393 7032 ft 126 kts 174°
2026-05-03 22:44 39.27091 -82.31127 7031 ft 126 kts 173°
2026-05-03 22:44 39.26234 -82.30862 7028 ft 127 kts 174°
2026-05-03 22:44 39.25374 -82.30596 7031 ft 127 kts 174°
2026-05-03 22:45 39.24513 -82.30328 7031 ft 127 kts 174°
2026-05-03 22:45 39.23656 -82.30062 7028 ft 126 kts 174°
2026-05-03 22:45 39.22800 -82.29796 7030 ft 127 kts 174°
2026-05-03 22:45 39.21938 -82.29529 7033 ft 128 kts 174°
2026-05-03 22:46 39.21078 -82.29262 7029 ft 127 kts 174°
2026-05-03 22:46 39.20222 -82.28997 7030 ft 126 kts 174°
2026-05-03 22:46 39.19366 -82.28732 7033 ft 127 kts 174°
2026-05-03 22:46 39.18501 -82.28464 7030 ft 128 kts 174°
2026-05-03 22:47 39.17639 -82.28198 7029 ft 127 kts 174°
2026-05-03 22:47 39.16783 -82.27931 7033 ft 126 kts 174°
2026-05-03 22:47 39.15942 -82.27670 7037 ft 126 kts 174°
2026-05-03 22:47 39.15079 -82.27403 7037 ft 126 kts 174°
2026-05-03 22:48 39.14225 -82.27139 7029 ft 126 kts 174°
2026-05-03 22:48 39.13370 -82.26875 7030 ft 126 kts 174°
2026-05-03 22:48 39.12530 -82.26615 7037 ft 126 kts 174°
2026-05-03 22:48 39.11677 -82.26351 7034 ft 126 kts 174°
2026-05-03 22:49 39.10821 -82.26086 7036 ft 127 kts 174°
2026-05-03 22:49 39.09956 -82.25818 7031 ft 128 kts 174°
2026-05-03 22:49 39.09088 -82.25551 7025 ft 128 kts 174°
2026-05-03 22:49 39.08223 -82.25283 7027 ft 128 kts 173°
2026-05-03 22:50 39.07357 -82.25016 7028 ft 128 kts 174°
2026-05-03 22:50 39.06492 -82.24749 7032 ft 128 kts 174°
2026-05-03 22:50 39.05624 -82.24482 7039 ft 128 kts 173°
2026-05-03 22:50 39.04762 -82.24215 7031 ft 127 kts 173°
2026-05-03 22:51 39.03906 -82.23950 7034 ft 127 kts 174°
2026-05-03 22:51 39.03048 -82.23686 7040 ft 127 kts 174°
2026-05-03 22:51 39.02188 -82.23421 7038 ft 127 kts 174°
2026-05-03 22:51 39.01327 -82.23155 7039 ft 127 kts 174°
2026-05-03 22:52 39.00468 -82.22890 7039 ft 127 kts 174°
2026-05-03 22:52 38.99609 -82.22626 7040 ft 127 kts 174°
2026-05-03 22:52 38.98751 -82.22361 7044 ft 127 kts 174°
2026-05-03 22:52 38.97889 -82.22096 7043 ft 128 kts 174°
2026-05-03 22:53 38.97025 -82.21830 7052 ft 127 kts 174°
2026-05-03 22:53 38.96164 -82.21564 7054 ft 128 kts 174°
2026-05-03 22:53 38.95295 -82.21297 7053 ft 129 kts 174°
2026-05-03 22:53 38.94423 -82.21029 7050 ft 129 kts 174°
2026-05-03 22:54 38.93553 -82.20761 7057 ft 129 kts 174°
2026-05-03 22:54 38.92684 -82.20493 7059 ft 128 kts 174°
2026-05-03 22:54 38.91813 -82.20226 7055 ft 129 kts 174°
2026-05-03 22:54 38.90940 -82.19957 7059 ft 129 kts 174°
2026-05-03 22:55 38.90070 -82.19689 7057 ft 129 kts 174°
2026-05-03 22:55 38.89212 -82.19426 7057 ft 129 kts 174°
2026-05-03 22:55 38.88342 -82.19159 7063 ft 128 kts 174°
2026-05-03 22:55 38.87475 -82.18892 7064 ft 128 kts 174°
2026-05-03 22:56 38.86605 -82.18625 7060 ft 129 kts 174°
2026-05-03 22:56 38.85729 -82.18357 7049 ft 130 kts 174°
2026-05-03 22:56 38.84851 -82.18088 7048 ft 130 kts 173°
2026-05-03 22:56 38.83975 -82.17819 7048 ft 130 kts 173°
2026-05-03 22:57 38.83098 -82.17549 7055 ft 129 kts 173°
2026-05-03 22:57 38.82226 -82.17281 7054 ft 129 kts 173°
2026-05-03 22:57 38.81351 -82.17013 7050 ft 129 kts 173°
2026-05-03 22:57 38.80480 -82.16746 7045 ft 128 kts 173°
2026-05-03 22:58 38.79627 -82.16484 7055 ft 126 kts 173°
2026-05-03 22:58 38.78770 -82.16222 7060 ft 127 kts 173°
2026-05-03 22:58 38.77903 -82.15958 7057 ft 128 kts 173°
2026-05-03 22:58 38.77042 -82.15693 7054 ft 127 kts 173°
2026-05-03 22:59 38.76181 -82.15429 7060 ft 127 kts 173°
2026-05-03 22:59 38.75317 -82.15165 7057 ft 128 kts 174°
2026-05-03 22:59 38.74447 -82.14906 7057 ft 128 kts 174°
2026-05-03 22:59 38.73577 -82.14637 7053 ft 129 kts 173°
2026-05-03 23:00 38.72706 -82.14369 7042 ft 130 kts 177°
2026-05-03 23:00 38.71832 -82.14108 7056 ft 129 kts 173°
2026-05-03 23:00 38.70967 -82.13840 7059 ft 128 kts 173°
2026-05-03 23:00 38.70099 -82.13572 7056 ft 129 kts 173°
2026-05-03 23:01 38.69233 -82.13306 7057 ft 128 kts 173°
2026-05-03 23:01 38.68365 -82.13041 7061 ft 128 kts 173°
2026-05-03 23:01 38.67499 -82.12775 7058 ft 128 kts 173°
2026-05-03 23:01 38.66631 -82.12509 7061 ft 128 kts 173°
2026-05-03 23:02 38.65764 -82.12244 7059 ft 128 kts 174°
2026-05-03 23:02 38.64897 -82.11981 7067 ft 129 kts 174°
2026-05-03 23:02 38.64024 -82.11716 7063 ft 129 kts 174°
2026-05-03 23:02 38.63442 -82.11538 7034 ft 131 kts 174°
2026-05-03 23:03 38.62545 -82.11265 7002 ft 132 kts 175°
2026-05-03 23:03 38.61654 -82.10990 7000 ft 131 kts 175°
2026-05-03 23:03 38.60767 -82.10720 6999 ft 131 kts 175°
2026-05-03 23:03 38.59879 -82.10450 7003 ft 131 kts 175°
2026-05-03 23:04 38.58701 -82.10093 6998 ft 131 kts 175°
2026-05-03 23:04 38.57812 -82.09821 7002 ft 131 kts 175°
2026-05-03 23:04 38.57213 -82.09639 6997 ft 131 kts 175°
2026-05-03 23:04 38.56334 -82.09373 6999 ft 129 kts 175°
2026-05-03 23:05 38.55461 -82.09106 7001 ft 129 kts 175°
2026-05-03 23:05 38.54588 -82.08841 7001 ft 129 kts 175°
2026-05-03 23:05 38.53711 -82.08575 6998 ft 130 kts 175°
2026-05-03 23:05 38.52834 -82.08309 7002 ft 130 kts 175°
2026-05-03 23:06 38.51950 -82.08040 7002 ft 132 kts 175°
2026-05-03 23:06 38.51056 -82.07767 7002 ft 132 kts 175°
2026-05-03 23:06 38.50160 -82.07494 7000 ft 132 kts 175°
2026-05-03 23:06 38.49268 -82.07223 7002 ft 132 kts 175°
2026-05-03 23:07 38.48375 -82.06952 7001 ft 132 kts 175°
2026-05-03 23:07 38.47493 -82.06685 7002 ft 132 kts 175°
2026-05-03 23:07 38.46601 -82.06415 7002 ft 132 kts 175°
2026-05-03 23:07 38.45709 -82.06145 7004 ft 132 kts 175°
2026-05-03 23:08 38.44811 -82.05872 7006 ft 133 kts 175°
2026-05-03 23:08 38.43910 -82.05597 7006 ft 133 kts 175°
2026-05-03 23:08 38.43011 -82.05326 7004 ft 133 kts 175°
2026-05-03 23:08 38.42115 -82.05054 7004 ft 132 kts 175°
2026-05-03 23:09 38.41218 -82.04782 7004 ft 132 kts 175°
2026-05-03 23:09 38.40324 -82.04511 7005 ft 132 kts 175°
2026-05-03 23:09 38.39428 -82.04239 7005 ft 132 kts 175°
2026-05-03 23:09 38.38540 -82.03970 7006 ft 130 kts 175°
2026-05-03 23:10 38.37656 -82.03703 6999 ft 130 kts 174°
2026-05-03 23:10 38.36791 -82.03438 7104 ft 123 kts 176°
2026-05-03 23:10 38.35966 -82.03186 7181 ft 122 kts 176°
2026-05-03 23:10 38.35149 -82.02938 7335 ft 114 kts 176°
2026-05-03 23:11 38.34405 -82.02705 7493 ft 112 kts 177°
2026-05-03 23:11 38.33633 -82.02475 7505 ft 117 kts 177°
2026-05-03 23:11 38.32816 -82.02234 7510 ft 124 kts 177°
2026-05-03 23:11 38.31961 -82.01981 7509 ft 129 kts 177°
2026-05-03 23:12 38.31080 -82.01716 7508 ft 131 kts 176°
2026-05-03 23:12 38.30181 -82.01445 7505 ft 134 kts 176°
2026-05-03 23:12 38.29276 -82.01171 7506 ft 134 kts 176°
2026-05-03 23:12 38.28365 -82.00895 7507 ft 135 kts 176°
2026-05-03 23:13 38.27449 -82.00618 7506 ft 135 kts 176°
2026-05-03 23:13 38.26538 -82.00343 7509 ft 135 kts 176°
2026-05-03 23:13 38.25628 -82.00063 7501 ft 133 kts 175°
2026-05-03 23:13 38.24743 -81.99797 7507 ft 133 kts 176°
2026-05-03 23:14 38.23835 -81.99530 7505 ft 134 kts 176°
2026-05-03 23:14 38.22929 -81.99258 7507 ft 135 kts 176°
2026-05-03 23:14 38.22016 -81.98981 7508 ft 135 kts 176°
2026-05-03 23:14 38.21094 -81.98702 7509 ft 138 kts 176°
2026-05-03 23:15 38.20161 -81.98421 7506 ft 138 kts 176°
2026-05-03 23:15 38.19230 -81.98139 7505 ft 138 kts 176°
2026-05-03 23:15 38.18301 -81.97859 7506 ft 137 kts 176°
2026-05-03 23:15 38.17376 -81.97581 7507 ft 136 kts 176°
2026-05-03 23:16 38.16455 -81.97303 7502 ft 136 kts 176°
2026-05-03 23:16 38.15536 -81.97027 7502 ft 136 kts 176°
2026-05-03 23:16 38.14617 -81.96750 7503 ft 136 kts 176°
2026-05-03 23:16 38.13696 -81.96473 7503 ft 136 kts 176°
2026-05-03 23:17 38.12779 -81.96198 7503 ft 134 kts 176°
2026-05-03 23:17 38.11869 -81.95924 7501 ft 134 kts 176°
2026-05-03 23:17 38.10963 -81.95653 7505 ft 134 kts 176°
2026-05-03 23:17 38.10051 -81.95379 7508 ft 135 kts 176°
2026-05-03 23:18 38.09138 -81.95105 7510 ft 135 kts 176°
2026-05-03 23:18 38.08221 -81.94830 7508 ft 136 kts 176°
2026-05-03 23:18 38.07305 -81.94555 7511 ft 136 kts 176°
2026-05-03 23:18 38.06387 -81.94278 7509 ft 135 kts 176°
2026-05-03 23:19 38.05470 -81.94004 7509 ft 136 kts 176°
2026-05-03 23:19 38.04553 -81.93728 7509 ft 135 kts 176°
2026-05-03 23:19 38.03636 -81.93454 7506 ft 135 kts 176°
2026-05-03 23:19 38.02722 -81.93180 7508 ft 135 kts 176°
2026-05-03 23:20 38.01808 -81.92906 7509 ft 135 kts 177°
2026-05-03 23:20 38.00891 -81.92629 7507 ft 136 kts 176°
2026-05-03 23:20 37.99974 -81.92354 7507 ft 135 kts 176°
2026-05-03 23:20 37.99052 -81.92078 7503 ft 138 kts 176°
2026-05-03 23:21 37.98117 -81.91802 7504 ft 138 kts 176°
2026-05-03 23:21 37.97180 -81.91521 7502 ft 139 kts 176°
2026-05-03 23:21 37.96238 -81.91241 7498 ft 139 kts 176°
2026-05-03 23:21 37.95301 -81.90960 7498 ft 138 kts 176°
2026-05-03 23:22 37.93439 -81.90406 7508 ft 140 kts 176°
2026-05-03 23:22 37.92498 -81.90119 7495 ft 138 kts 176°
2026-05-03 23:22 37.91587 -81.89850 7521 ft 135 kts 177°
2026-05-03 23:23 37.90673 -81.89575 7501 ft 133 kts 176°
2026-05-03 23:23 37.89776 -81.89305 7504 ft 132 kts 176°
2026-05-03 23:23 37.88877 -81.89034 7503 ft 133 kts 176°
2026-05-03 23:23 37.87969 -81.88771 7509 ft 136 kts 176°
2026-05-03 23:24 37.87049 -81.88494 7507 ft 136 kts 176°
2026-05-03 23:24 37.86138 -81.88220 7506 ft 137 kts 176°
2026-05-03 23:24 37.85216 -81.87947 7510 ft 136 kts 176°
2026-05-03 23:24 37.84284 -81.87667 7506 ft 138 kts 176°
2026-05-03 23:25 37.83351 -81.87386 7506 ft 137 kts 178°
2026-05-03 23:25 37.82428 -81.87111 7510 ft 136 kts 176°
2026-05-03 23:25 37.81499 -81.86839 7514 ft 138 kts 176°
2026-05-03 23:25 37.80561 -81.86561 7512 ft 138 kts 176°
2026-05-03 23:26 37.79622 -81.86280 7511 ft 139 kts 176°
2026-05-03 23:26 37.78689 -81.86000 7509 ft 137 kts 176°
2026-05-03 23:26 37.77758 -81.85729 7505 ft 137 kts 176°
2026-05-03 23:26 37.76842 -81.85451 7515 ft 135 kts 176°
2026-05-03 23:27 37.75908 -81.85170 7509 ft 139 kts 176°
2026-05-03 23:27 37.74973 -81.84894 7514 ft 138 kts 175°
2026-05-03 23:27 37.74040 -81.84619 7513 ft 138 kts 176°
2026-05-03 23:27 37.73105 -81.84340 7502 ft 138 kts 174°
2026-05-03 23:28 37.72183 -81.84062 7509 ft 136 kts 176°
2026-05-03 23:28 37.71261 -81.83790 7516 ft 137 kts 176°
2026-05-03 23:28 37.70328 -81.83515 7507 ft 138 kts 175°
2026-05-03 23:28 37.69397 -81.83235 7510 ft 138 kts 176°
2026-05-03 23:29 37.68463 -81.82958 7516 ft 138 kts 176°
2026-05-03 23:29 37.67526 -81.82679 7514 ft 138 kts 176°
2026-05-03 23:29 37.66588 -81.82400 7493 ft 136 kts 175°
2026-05-03 23:29 37.65684 -81.82132 7519 ft 134 kts 176°
2026-05-03 23:30 37.64765 -81.81863 7501 ft 136 kts 175°
2026-05-03 23:30 37.63856 -81.81593 7507 ft 134 kts 176°
2026-05-03 23:30 37.62950 -81.81325 7506 ft 133 kts 176°
2026-05-03 23:30 37.62063 -81.81061 7504 ft 132 kts 177°
2026-05-03 23:31 37.61195 -81.80806 7510 ft 125 kts 176°
2026-05-03 23:31 37.60337 -81.80551 7512 ft 129 kts 176°
2026-05-03 23:31 37.59453 -81.80289 7508 ft 132 kts 176°
2026-05-03 23:31 37.58556 -81.80023 7513 ft 133 kts 176°
2026-05-03 23:32 37.57653 -81.79754 7515 ft 134 kts 176°
2026-05-03 23:32 37.56750 -81.79490 7515 ft 133 kts 177°
2026-05-03 23:32 37.55844 -81.79223 7510 ft 134 kts 176°
2026-05-03 23:32 37.54961 -81.78955 7519 ft 126 kts 176°
2026-05-03 23:33 37.54093 -81.78697 7511 ft 129 kts 176°
2026-05-03 23:33 37.53219 -81.78433 7511 ft 129 kts 176°
2026-05-03 23:33 37.52381 -81.78193 7512 ft 117 kts 180°
2026-05-03 23:33 37.51562 -81.77967 7508 ft 126 kts 177°
2026-05-03 23:34 37.50695 -81.77700 7498 ft 130 kts 176°
2026-05-03 23:34 37.49812 -81.77433 7499 ft 130 kts 176°
2026-05-03 23:34 37.48944 -81.77167 7503 ft 123 kts 176°
2026-05-03 23:34 37.48109 -81.76936 7501 ft 129 kts 177°
2026-05-03 23:35 37.47226 -81.76673 7509 ft 132 kts 176°
2026-05-03 23:35 37.46325 -81.76406 7500 ft 133 kts 177°
2026-05-03 23:35 37.45461 -81.76135 7521 ft 123 kts 174°
2026-05-03 23:35 37.44620 -81.75891 7511 ft 126 kts 178°
2026-05-03 23:36 37.43753 -81.75652 7512 ft 129 kts 177°
2026-05-03 23:36 37.42865 -81.75392 7518 ft 132 kts 176°
2026-05-03 23:36 37.41995 -81.75124 7520 ft 126 kts 175°
2026-05-03 23:36 37.41125 -81.74873 7514 ft 130 kts 175°
2026-05-03 23:37 37.40233 -81.74614 7510 ft 133 kts 175°
2026-05-03 23:37 37.39333 -81.74349 7509 ft 133 kts 175°
2026-05-03 23:37 37.38432 -81.74079 7507 ft 133 kts 175°
2026-05-03 23:37 37.37535 -81.73816 7508 ft 132 kts 175°
2026-05-03 23:38 37.36633 -81.73552 7512 ft 134 kts 175°
2026-05-03 23:38 37.35733 -81.73285 7493 ft 130 kts 175°
2026-05-03 23:38 37.34880 -81.73044 7512 ft 128 kts 176°
2026-05-03 23:38 37.33993 -81.72785 7497 ft 131 kts 174°
2026-05-03 23:39 37.33117 -81.72517 7506 ft 132 kts 174°
2026-05-03 23:39 37.32232 -81.72253 7507 ft 129 kts 175°
2026-05-03 23:39 37.31365 -81.71994 7497 ft 126 kts 176°
2026-05-03 23:39 37.30521 -81.71735 7519 ft 125 kts 177°
2026-05-03 23:40 37.29661 -81.71496 7516 ft 128 kts 175°
2026-05-03 23:40 37.28784 -81.71244 7516 ft 131 kts 175°
2026-05-03 23:40 37.27894 -81.70980 7505 ft 131 kts 174°
2026-05-03 23:40 37.27003 -81.70719 7510 ft 133 kts 174°
2026-05-03 23:41 37.26103 -81.70455 7525 ft 132 kts 175°
2026-05-03 23:41 37.25207 -81.70193 7517 ft 132 kts 175°
2026-05-03 23:41 37.24318 -81.69932 7516 ft 130 kts 174°
2026-05-03 23:41 37.23434 -81.69672 7512 ft 130 kts 174°
2026-05-03 23:42 37.22544 -81.69413 7516 ft 132 kts 175°
2026-05-03 23:42 37.21645 -81.69149 7521 ft 134 kts 175°
2026-05-03 23:42 37.20734 -81.68883 7527 ft 135 kts 174°
2026-05-03 23:42 37.19816 -81.68614 7518 ft 135 kts 174°
2026-05-03 23:43 37.18911 -81.68349 7512 ft 132 kts 175°
2026-05-03 23:43 37.18024 -81.68086 7509 ft 131 kts 175°
2026-05-03 23:43 37.17128 -81.67824 7522 ft 135 kts 174°
2026-05-03 23:43 37.16210 -81.67556 7514 ft 136 kts 174°
2026-05-03 23:44 37.15285 -81.67285 7516 ft 137 kts 174°
2026-05-03 23:44 37.14360 -81.67015 7516 ft 136 kts 174°
2026-05-03 23:44 37.13435 -81.66745 7513 ft 137 kts 173°
2026-05-03 23:44 37.12512 -81.66477 7514 ft 135 kts 174°
2026-05-03 23:45 37.11593 -81.66208 7521 ft 136 kts 174°
2026-05-03 23:45 37.10665 -81.65935 7520 ft 137 kts 174°
2026-05-03 23:45 37.09734 -81.65663 7521 ft 138 kts 174°
2026-05-03 23:45 37.08802 -81.65392 7524 ft 137 kts 174°
2026-05-03 23:46 37.07867 -81.65119 7522 ft 139 kts 174°
2026-05-03 23:46 37.06926 -81.64840 7519 ft 139 kts 174°
2026-05-03 23:46 37.05993 -81.64570 7522 ft 137 kts 175°
2026-05-03 23:46 37.05059 -81.64299 7523 ft 138 kts 174°
2026-05-03 23:47 37.04117 -81.64025 7525 ft 139 kts 174°
2026-05-03 23:47 37.03172 -81.63749 7522 ft 139 kts 174°
2026-05-03 23:47 37.02234 -81.63474 7519 ft 138 kts 174°
2026-05-03 23:47 37.01305 -81.63202 7524 ft 137 kts 175°
2026-05-03 23:48 37.00372 -81.62930 7518 ft 136 kts 175°
2026-05-03 23:48 36.99451 -81.62662 7520 ft 136 kts 174°
2026-05-03 23:48 36.98531 -81.62395 7521 ft 136 kts 174°
2026-05-03 23:48 36.97616 -81.62134 7520 ft 133 kts 175°
2026-05-03 23:49 36.96703 -81.61866 7526 ft 138 kts 174°
2026-05-03 23:49 36.95759 -81.61587 7512 ft 139 kts 174°
2026-05-03 23:49 36.94830 -81.61313 7517 ft 136 kts 174°
2026-05-03 23:49 36.93906 -81.61045 7520 ft 137 kts 175°
2026-05-03 23:50 36.92971 -81.60774 7511 ft 138 kts 176°
2026-05-03 23:50 36.92354 -81.60596 7511 ft 138 kts 175°
2026-05-03 23:50 36.91108 -81.60235 7513 ft 137 kts 175°
2026-05-03 23:50 36.90180 -81.59965 7511 ft 137 kts 175°
2026-05-03 23:51 36.89251 -81.59695 7514 ft 138 kts 175°
2026-05-03 23:51 36.88312 -81.59423 7521 ft 140 kts 175°
2026-05-03 23:51 36.87363 -81.59147 7518 ft 140 kts 175°
2026-05-03 23:51 36.86413 -81.58872 7514 ft 140 kts 175°
2026-05-03 23:52 36.85478 -81.58600 7514 ft 140 kts 175°
2026-05-03 23:52 36.84532 -81.58325 7512 ft 139 kts 175°
2026-05-03 23:52 36.83588 -81.58051 7515 ft 139 kts 175°
2026-05-03 23:52 36.82644 -81.57777 7512 ft 139 kts 175°
2026-05-03 23:53 36.81700 -81.57504 7514 ft 140 kts 175°
2026-05-03 23:53 36.80755 -81.57230 7512 ft 139 kts 175°
2026-05-03 23:53 36.79811 -81.56956 7511 ft 139 kts 175°
2026-05-03 23:53 36.78872 -81.56684 7512 ft 138 kts 175°
2026-05-03 23:54 36.78249 -81.56505 7511 ft 139 kts 175°
2026-05-03 23:54 36.77308 -81.56232 7534 ft 139 kts 175°
2026-05-03 23:54 36.76363 -81.55957 7530 ft 139 kts 175°
2026-05-03 23:54 36.75423 -81.55684 7532 ft 139 kts 175°
2026-05-03 23:55 36.74479 -81.55411 7529 ft 139 kts 175°
2026-05-03 23:55 36.73530 -81.55137 7528 ft 141 kts 175°
2026-05-03 23:55 36.72579 -81.54862 7519 ft 139 kts 176°
2026-05-03 23:55 36.71636 -81.54591 7528 ft 140 kts 175°
2026-05-03 23:56 36.70690 -81.54314 7526 ft 140 kts 174°
2026-05-03 23:56 36.69749 -81.54041 7519 ft 138 kts 175°
2026-05-03 23:56 36.68815 -81.53770 7513 ft 138 kts 177°
2026-05-03 23:56 36.67870 -81.53500 7518 ft 141 kts 177°
2026-05-03 23:57 36.66922 -81.53219 7512 ft 134 kts 174°
2026-05-03 23:57 36.66042 -81.52960 7529 ft 128 kts 178°
2026-05-03 23:57 36.65149 -81.52713 7512 ft 134 kts 178°
2026-05-03 23:57 36.64240 -81.52454 7511 ft 134 kts 178°
2026-05-03 23:58 36.63352 -81.52195 7491 ft 124 kts 176°
2026-05-03 23:58 36.62561 -81.51946 7534 ft 117 kts 178°
2026-05-03 23:58 36.61727 -81.51718 7511 ft 125 kts 179°
2026-05-03 23:58 36.60861 -81.51479 7516 ft 131 kts 179°
2026-05-03 23:59 36.59953 -81.51222 7509 ft 137 kts 178°
2026-05-03 23:59 36.59026 -81.50967 7506 ft 138 kts 178°
2026-05-03 23:59 36.58087 -81.50675 7500 ft 139 kts 176°
2026-05-03 23:59 36.57143 -81.50404 7504 ft 140 kts 177°
2026-05-04 00:00 36.56187 -81.50122 7529 ft 141 kts 178°
2026-05-04 00:00 36.55227 -81.49856 7525 ft 141 kts 178°
2026-05-04 00:00 36.54273 -81.49584 7525 ft 140 kts 178°
2026-05-04 00:00 36.53340 -81.49310 7521 ft 139 kts 178°
2026-05-04 00:01 36.52405 -81.49040 7540 ft 138 kts 178°
2026-05-04 00:01 36.51462 -81.48772 7543 ft 140 kts 178°
2026-05-04 00:01 36.50512 -81.48500 7542 ft 140 kts 177°
2026-05-04 00:01 36.49567 -81.48229 7538 ft 139 kts 178°
2026-05-04 00:02 36.48629 -81.47956 7541 ft 138 kts 177°
2026-05-04 00:02 36.47691 -81.47681 7542 ft 138 kts 178°
2026-05-04 00:02 36.46765 -81.47418 7537 ft 134 kts 177°
2026-05-04 00:02 36.45846 -81.47162 7535 ft 136 kts 178°
2026-05-04 00:03 36.44920 -81.46894 7543 ft 138 kts 178°
2026-05-04 00:03 36.43985 -81.46621 7530 ft 138 kts 177°
2026-05-04 00:03 36.43058 -81.46355 7533 ft 135 kts 177°
2026-05-04 00:03 36.42139 -81.46091 7532 ft 135 kts 176°
2026-05-04 00:04 36.41219 -81.45828 7522 ft 137 kts 176°
2026-05-04 00:04 36.40293 -81.45562 7486 ft 136 kts 177°
2026-05-04 00:04 36.39387 -81.45304 7460 ft 131 kts 176°
2026-05-04 00:04 36.38509 -81.45050 7451 ft 131 kts 177°
2026-05-04 00:05 36.37608 -81.44794 7427 ft 135 kts 177°
2026-05-04 00:05 36.36681 -81.44530 7405 ft 138 kts 177°
2026-05-04 00:05 36.35739 -81.44260 7375 ft 140 kts 176°
2026-05-04 00:05 36.34793 -81.43986 7355 ft 139 kts 176°
2026-05-04 00:06 36.33854 -81.43717 7321 ft 138 kts 176°
2026-05-04 00:06 36.32923 -81.43451 7303 ft 137 kts 177°
2026-05-04 00:06 36.31989 -81.43185 7274 ft 138 kts 177°
2026-05-04 00:06 36.31056 -81.42916 7245 ft 138 kts 177°
2026-05-04 00:07 36.30122 -81.42649 7221 ft 137 kts 175°
2026-05-04 00:07 36.29207 -81.42386 7199 ft 135 kts 177°
2026-05-04 00:07 36.28269 -81.42124 7109 ft 141 kts 176°
2026-05-04 00:07 36.27309 -81.41851 7001 ft 141 kts 176°
2026-05-04 00:08 36.26346 -81.41579 6904 ft 142 kts 176°
2026-05-04 00:08 36.25393 -81.41302 6802 ft 140 kts 176°
2026-05-04 00:08 36.24444 -81.41025 6714 ft 141 kts 176°
2026-05-04 00:08 36.23480 -81.40751 6614 ft 143 kts 177°
2026-05-04 00:09 36.22504 -81.40477 6513 ft 144 kts 177°
2026-05-04 00:09 36.21543 -81.40204 6402 ft 142 kts 177°
2026-05-04 00:09 36.20597 -81.39932 6286 ft 137 kts 173°
2026-05-04 00:09 36.19677 -81.39667 6196 ft 136 kts 174°
2026-05-04 00:10 36.18758 -81.39410 6087 ft 137 kts 172°
2026-05-04 00:10 36.17818 -81.39139 5974 ft 139 kts 172°
2026-05-04 00:10 36.16875 -81.38872 5873 ft 139 kts 172°
2026-05-04 00:10 36.15937 -81.38605 5771 ft 138 kts 172°
2026-05-04 00:11 36.15005 -81.38341 5669 ft 137 kts 172°
2026-05-04 00:11 36.14070 -81.38075 5568 ft 139 kts 172°
2026-05-04 00:11 36.13120 -81.37802 5456 ft 140 kts 172°
2026-05-04 00:11 36.12172 -81.37530 5361 ft 140 kts 171°
2026-05-04 00:12 36.11228 -81.37261 5261 ft 139 kts 172°
2026-05-04 00:12 36.10284 -81.36992 5161 ft 139 kts 171°
2026-05-04 00:12 36.09340 -81.36724 5058 ft 139 kts 171°
2026-05-04 00:12 36.08399 -81.36456 4961 ft 139 kts 171°
2026-05-04 00:13 36.07456 -81.36189 4857 ft 138 kts 171°
2026-05-04 00:13 36.06519 -81.35922 4756 ft 138 kts 170°
2026-05-04 00:13 36.05577 -81.35655 4648 ft 139 kts 171°
2026-05-04 00:13 36.04631 -81.35380 4548 ft 140 kts 171°
2026-05-04 00:14 36.03683 -81.35115 4463 ft 138 kts 171°
2026-05-04 00:14 36.02750 -81.34853 4384 ft 137 kts 171°
2026-05-04 00:14 36.01819 -81.34588 4309 ft 137 kts 171°
2026-05-04 00:14 36.00887 -81.34324 4236 ft 138 kts 171°
2026-05-04 00:15 35.99949 -81.34057 4158 ft 139 kts 171°
2026-05-04 00:15 35.99005 -81.33789 4077 ft 139 kts 171°
2026-05-04 00:15 35.98069 -81.33523 4001 ft 137 kts 171°
2026-05-04 00:15 35.97140 -81.33259 3922 ft 137 kts 171°
2026-05-04 00:16 35.96213 -81.32995 3842 ft 136 kts 170°
2026-05-04 00:16 35.95293 -81.32735 3769 ft 136 kts 171°
2026-05-04 00:16 35.94374 -81.32475 3687 ft 134 kts 169°
2026-05-04 00:16 35.93476 -81.32218 3613 ft 132 kts 170°
2026-05-04 00:17 35.92586 -81.31968 3529 ft 130 kts 171°
2026-05-04 00:17 35.91706 -81.31719 3455 ft 130 kts 170°
2026-05-04 00:17 35.90826 -81.31470 3381 ft 130 kts 171°
2026-05-04 00:17 35.89943 -81.31219 3306 ft 130 kts 170°
2026-05-04 00:18 35.89061 -81.30970 3235 ft 130 kts 171°
2026-05-04 00:18 35.88177 -81.30721 3158 ft 130 kts 170°
2026-05-04 00:18 35.87291 -81.30471 3079 ft 131 kts 171°
2026-05-04 00:18 35.86406 -81.30220 3007 ft 131 kts 171°
2026-05-04 00:19 35.85525 -81.29971 2995 ft 127 kts 171°
2026-05-04 00:19 35.84686 -81.29732 2994 ft 124 kts 171°
2026-05-04 00:19 35.83853 -81.29497 2994 ft 122 kts 171°
2026-05-04 00:19 35.83030 -81.29265 2989 ft 120 kts 170°
2026-05-04 00:20 35.82223 -81.29035 2995 ft 119 kts 171°
2026-05-04 00:20 35.81416 -81.28808 2997 ft 119 kts 171°
2026-05-04 00:20 35.80607 -81.28579 2996 ft 119 kts 170°
2026-05-04 00:20 35.79800 -81.28352 3000 ft 119 kts 171°
2026-05-04 00:21 35.78990 -81.28122 2997 ft 119 kts 171°
2026-05-04 00:21 35.78186 -81.27896 2999 ft 118 kts 171°
2026-05-04 00:21 35.77384 -81.27671 2997 ft 118 kts 171°
2026-05-04 00:21 35.76587 -81.27446 3000 ft 118 kts 171°
2026-05-04 00:22 35.75783 -81.27219 2996 ft 119 kts 171°
2026-05-04 00:22 35.74978 -81.26993 2995 ft 119 kts 171°
2026-05-04 00:22 35.74173 -81.26765 2995 ft 119 kts 171°
2026-05-04 00:22 35.73369 -81.26538 2996 ft 119 kts 171°
2026-05-04 00:23 35.72565 -81.26312 2995 ft 118 kts 171°
2026-05-04 00:23 35.71760 -81.26085 2996 ft 119 kts 171°
2026-05-04 00:23 35.70957 -81.25859 2992 ft 118 kts 171°
2026-05-04 00:23 35.70158 -81.25633 2993 ft 118 kts 171°
2026-05-04 00:24 35.69359 -81.25409 2991 ft 118 kts 171°
2026-05-04 00:24 35.68562 -81.25185 2990 ft 117 kts 171°
2026-05-04 00:24 35.67768 -81.24961 2990 ft 117 kts 171°
2026-05-04 00:24 35.66977 -81.24738 2988 ft 117 kts 171°
2026-05-04 00:25 35.66188 -81.24516 2988 ft 116 kts 171°
2026-05-04 00:25 35.65399 -81.24294 2990 ft 117 kts 171°
2026-05-04 00:25 35.64611 -81.24073 2984 ft 115 kts 171°
2026-05-04 00:25 35.63835 -81.23854 2988 ft 115 kts 171°
2026-05-04 00:26 35.63056 -81.23635 3001 ft 115 kts 171°
2026-05-04 00:26 35.62276 -81.23416 3005 ft 115 kts 171°
2026-05-04 00:26 35.61489 -81.23196 3004 ft 116 kts 171°
2026-05-04 00:26 35.60701 -81.22974 3005 ft 116 kts 171°
2026-05-04 00:27 35.59914 -81.22753 3008 ft 116 kts 171°
2026-05-04 00:27 35.59132 -81.22533 3010 ft 117 kts 171°
2026-05-04 00:27 35.58337 -81.22310 3011 ft 117 kts 172°
2026-05-04 00:27 35.57532 -81.22085 3014 ft 117 kts 171°
2026-05-04 00:28 35.56745 -81.21864 3014 ft 118 kts 171°
2026-05-04 00:28 35.55949 -81.21640 3014 ft 117 kts 171°
2026-05-04 00:28 35.55153 -81.21417 3016 ft 118 kts 171°
2026-05-04 00:28 35.54346 -81.21193 2947 ft 123 kts 172°
2026-05-04 00:29 35.53510 -81.21048 2936 ft 118 kts 185°
2026-05-04 00:29 35.52741 -81.21312 2902 ft 113 kts 205°
2026-05-04 00:29 35.52023 -81.21694 2875 ft 113 kts 203°
2026-05-04 00:29 35.51292 -81.22049 2817 ft 113 kts 201°
2026-05-04 00:30 35.50543 -81.22322 2789 ft 112 kts 197°
2026-05-04 00:30 35.49787 -81.22510 2785 ft 109 kts 191°
2026-05-04 00:30 35.49037 -81.22647 2765 ft 109 kts 191°
2026-05-04 00:30 35.48287 -81.22778 2776 ft 107 kts 190°
2026-05-04 00:31 35.47557 -81.22872 2772 ft 106 kts 188°
2026-05-04 00:31 35.46819 -81.22984 2747 ft 107 kts 191°
2026-05-04 00:31 35.46096 -81.23086 2775 ft 105 kts 187°
2026-05-04 00:31 35.45355 -81.23085 2752 ft 108 kts 181°
2026-05-04 00:32 35.44625 -81.23036 2819 ft 103 kts 180°
2026-05-04 00:32 35.43906 -81.22971 2812 ft 106 kts 178°
2026-05-04 00:32 35.43172 -81.22896 2824 ft 104 kts 180°
2026-05-04 00:32 35.42455 -81.22875 2862 ft 103 kts 186°
2026-05-04 00:33 35.41729 -81.22933 2845 ft 107 kts 187°
2026-05-04 00:33 35.40271 -81.23059 2942 ft 103 kts 187°
2026-05-04 00:33 35.39550 -81.23096 2967 ft 103 kts 186°
2026-05-04 00:34 35.38833 -81.23163 2983 ft 104 kts 188°
2026-05-04 00:34 35.38103 -81.23252 3002 ft 105 kts 189°
2026-05-04 00:34 35.37379 -81.23352 3026 ft 106 kts 189°
2026-05-04 00:34 35.36644 -81.23402 3082 ft 105 kts 186°
2026-05-04 00:35 35.35919 -81.23433 3113 ft 104 kts 186°
2026-05-04 00:35 35.35183 -81.23483 3100 ft 109 kts 187°
2026-05-04 00:35 35.34427 -81.23544 3113 ft 108 kts 188°
2026-05-04 00:35 35.33679 -81.23595 3145 ft 107 kts 184°
2026-05-04 00:36 35.32932 -81.23565 3165 ft 108 kts 182°
2026-05-04 00:36 35.32176 -81.23516 3173 ft 109 kts 181°
2026-05-04 00:36 35.31418 -81.23459 3169 ft 111 kts 181°
2026-05-04 00:36 35.30640 -81.23380 3171 ft 112 kts 179°
2026-05-04 00:37 35.29858 -81.23397 3147 ft 113 kts 185°
2026-05-04 00:37 35.29077 -81.23412 3181 ft 110 kts 184°
2026-05-04 00:37 35.28324 -81.23370 3200 ft 109 kts 186°
2026-05-04 00:37 35.27559 -81.23420 3184 ft 111 kts 187°
2026-05-04 00:38 35.26781 -81.23485 3110 ft 114 kts 189°
2026-05-04 00:38 35.25998 -81.23526 3082 ft 112 kts 184°
2026-05-04 00:38 35.25217 -81.23477 3069 ft 113 kts 176°
2026-05-04 00:38 35.24458 -81.23220 3067 ft 114 kts 167°
2026-05-04 00:39 35.23699 -81.22899 3002 ft 117 kts 167°
2026-05-04 00:39 35.22938 -81.22580 2980 ft 115 kts 166°
2026-05-04 00:39 35.22178 -81.22264 2943 ft 115 kts 168°
2026-05-04 00:39 35.21411 -81.22000 2931 ft 114 kts 171°
2026-05-04 00:40 35.20642 -81.21774 2904 ft 113 kts 171°
2026-05-04 00:40 35.19891 -81.21529 2927 ft 111 kts 169°
2026-05-04 00:40 35.19138 -81.21278 2897 ft 113 kts 172°
2026-05-04 00:40 35.18378 -81.21077 2913 ft 110 kts 175°
2026-05-04 00:41 35.17630 -81.20854 2882 ft 113 kts 169°
2026-05-04 00:41 35.16877 -81.20575 2875 ft 112 kts 169°
2026-05-04 00:41 35.16135 -81.20312 2879 ft 111 kts 168°
2026-05-04 00:41 35.15415 -81.19969 2882 ft 113 kts 158°
2026-05-04 00:42 35.14714 -81.19535 2860 ft 113 kts 158°
2026-05-04 00:42 35.14272 -81.19185 2845 ft 115 kts 152°
2026-05-04 00:42 35.13611 -81.18634 2847 ft 114 kts 151°
2026-05-04 00:42 35.12950 -81.18084 2840 ft 115 kts 152°
2026-05-04 00:43 35.12295 -81.17540 2850 ft 114 kts 150°
2026-05-04 00:43 35.11665 -81.16938 2848 ft 115 kts 143°
2026-05-04 00:43 35.11055 -81.16306 2829 ft 116 kts 147°
2026-05-04 00:43 35.10465 -81.15620 2797 ft 118 kts 144°
2026-05-04 00:44 35.09852 -81.14956 2773 ft 116 kts 144°
2026-05-04 00:44 35.09248 -81.14318 2714 ft 114 kts 142°
2026-05-04 00:44 35.08667 -81.13672 2659 ft 113 kts 143°
2026-05-04 00:44 35.08088 -81.13029 2606 ft 112 kts 144°
2026-05-04 00:45 35.07513 -81.12397 2556 ft 111 kts 142°
2026-05-04 00:45 35.06942 -81.11771 2502 ft 111 kts 145°
2026-05-04 00:45 35.06362 -81.11151 2442 ft 110 kts 145°
2026-05-04 00:45 35.05796 -81.10543 2410 ft 108 kts 148°
2026-05-04 00:46 35.05137 -81.10225 2395 ft 100 kts 176°
2026-05-04 00:46 35.04445 -81.10149 2355 ft 100 kts 178°
2026-05-04 00:46 35.03749 -81.10084 2319 ft 100 kts 177°
2026-05-04 00:46 35.03095 -81.09977 2334 ft 90 kts 176°
2026-05-04 00:47 35.02480 -81.09874 2287 ft 89 kts 179°
2026-05-04 00:47 35.01886 -81.09789 2256 ft 86 kts 176°
2026-05-04 00:47 35.01291 -81.09637 2215 ft 88 kts 165°
2026-05-04 00:47 35.00717 -81.09346 2183 ft 88 kts 162°
2026-05-04 00:48 35.00153 -81.09107 2159 ft 86 kts 169°
2026-05-04 00:48 34.99569 -81.08974 2118 ft 85 kts 178°
2026-05-04 00:48 34.98975 -81.08944 2076 ft 85 kts 184°
2026-05-04 00:48 34.98387 -81.08932 2068 ft 85 kts 182°
2026-05-04 00:49 34.97795 -81.08871 2033 ft 86 kts 182°
2026-05-04 00:49 34.97279 -81.08647 1969 ft 85 kts 142°
2026-05-04 00:49 34.96907 -81.08074 1839 ft 87 kts 128°
2026-05-04 00:49 34.96668 -81.07388 1711 ft 89 kts 113°
2026-05-04 00:50 34.96672 -81.06640 1519 ft 98 kts 57°
2026-05-04 00:50 34.97168 -81.06140 1175 ft 89 kts 24°
2026-05-04 00:50 34.97757 -81.05969 790 ft 83 kts
2026-05-04 00:50 34.98251 -81.05849 666 ft 58 kts
2026-05-04 00:51 34.98581 -81.05768 663 ft 42 kts 11°
2026-05-04 00:51 34.98748 -81.05744 661 ft 13 kts 315°
2026-05-04 00:51 34.98769 -81.05833 662 ft 8 kts 269°
2026-05-04 00:51 34.98740 -81.05862 662 ft 7 kts 208°
2026-05-04 00:52 34.98739 -81.05916 661 ft 9 kts 328°
2026-05-04 00:52 34.98771 -81.05933 661 ft 3 kts 277°